CZ-11 R/B (43872 NORAD) Tracking and Keplerian Element Data

This shows tracking and keplerian element data for the satellite.

Feedback or suggestion? Click here.




ElementValue
Catalog43872
NameCZ-11 R/B
Epoch Orbit401
Epoch Day19.60732597
Epoch Year2019
RAAN33.2835
Inclination100.4308
Eccentricity0.0344246
Argument of Perigee246.6678
Mean Anonmoly109.7914
Mean Motion14.00890154
Decay Rate1.61E-06
L11 43872U 18108B 19019.60732597 .00000161 00000-0 90699-4 0 9996
L22 43872 100.4308 33.2835 0344246 246.6678 109.7914 14.00890154 4016

Live tracking and technical data element details for CZ-11 R/B (NORAD 43872). CZ-11 R/B can be tracked NOW for your location showing map with azimuth and elevation plus other details from your city location.

Track the satellite on the map from your city or location and see movement details for azimuth, elevation, latitude, longitude, range, height, and movement on the map or in text.







IsCatalogInMostPopularTable: catalog: 43872, numindb: 47
Update: records affected: 1



GetName: 43872 CZ-11 R/B

Hit Count: updated at: Thu, 23 May 2019 15:46:44 GMT